Overview Statistics Trail Chart Weather Telemetry Raw packets
 

This is the latest recevied weather packets stored in our database for station/object DC1MPP-9. If no packets are shown the sender has not sent any weather packets the latest 10 day(s).

<< 75 76 77 78 79 80 81 >>
Time Temp. Humidity Pressure Rain* Wind** Luminosity Snow
1788025703 22.78° C 79% 959 hPa - - - -
1788025468 23.33° C 75% 959 hPa - - - -
1788025221 23.33° C 72% 959 hPa - - - -
1788024980 23.33° C 76% 959 hPa - - - -
1788024739 23.33° C 73% 959 hPa - - - -
1788024498 23.89° C 70% 959 hPa - - - -
1788024257 23.89° C 67% 959 hPa - - - -
1788024016 23.89° C 62% 959 hPa - - - -
1788023775 23.89° C 69% 959 hPa - - - -
1788023051 24.44° C 62% 959 hPa - - - -
1788022810 24.44° C 65% 959 hPa - - - -
1788022569 24.44° C 59% 959 hPa - - - -
1788022328 24.44° C 47% 959 hPa - - - -
1788022087 24.44° C 47% 959 hPa - - - -
1788021846 25° C 47% 959 hPa - - - -
1788021605 25° C 48% 959 hPa - - - -
1788021364 25° C 47% 959 hPa - - - -
1788021123 25° C 43% 959 hPa - - - -
1788020882 25.56° C 61% 959 hPa - - - -
1788020400 25.56° C 58% 959 hPa - - - -
1788020159 25° C 52% 959 hPa - - - -
1788019918 25° C 58% 959 hPa - - - -
1788019676 25° C 54% 959 hPa - - - -
1788019435 25° C 46% 959 hPa - - - -
1788019194 25.56° C 43% 959 hPa - - - -

* Rain since midnight (hover to see other rain measurements)
** Current wind speed in m/s (hover to see current wind gust speed)